WC1Z Weather Reports


Display with metric or nautical units.
time (UTC)temp
F
wind
direction
speed
MPH
gust
MPH
rain 1hr
in
rain 24hr
in
rain mn
in
humidity
%
barometer
mb
20260507020700 61 6 3.0 4.0 0.00 0.00 0.01 88 1013.4
20260507020200 61 96 2.0 3.0 0.00 0.00 0.01 88 1013.4
20260507015700 61 67 5.0 7.0 0.00 0.00 0.01 88 1013.3
20260507015201 61 8 4.0 6.0 0.00 0.00 0.01 88 1013.2
20260507014700 61 352 4.0 6.0 0.00 0.00 0.01 88 1013.3
20260507014202 62 50 5.0 8.0 0.00 0.00 0.01 88 1013.2
20260507013700 62 328 4.0 5.0 0.00 0.00 0.01 88 1012.9
20260507013200 62 47 3.0 4.0 0.00 0.00 0.01 88 1012.9
20260507012700 62 24 4.0 7.0 0.00 0.00 0.01 87 1012.7
20260507012201 62 2 4.0 7.0 0.00 0.00 0.01 87 1012.6
20260507011701 63 13 4.0 6.0 0.00 0.00 0.01 87 1012.6
20260507011204 63 27 4.0 7.0 0.00 0.00 0.01 87 1012.5
20260507010700 63 8 0.0 1.0 0.00 0.00 0.01 88 1012.4
20260507010201 63 349 5.0 8.0 0.00 0.00 0.01 87 1012.1
20260507005701 64 31 2.0 5.0 0.00 0.00 0.01 87 1012.0
20260507005200 64 3 4.0 6.0 0.00 0.00 0.01 87 1012.1
20260507004701 64 343 5.0 8.0 0.00 0.00 0.01 87 1012.2
20260507004200 64 301 3.0 6.0 0.00 0.00 0.01 87 1012.1
20260507003700 65 318 3.0 8.0 0.00 0.00 0.01 87 1012.0
20260507003201 65 349 3.0 7.0 0.00 0.00 0.01 86 1012.0
20260507002701 65 25 4.0 6.0 0.00 0.00 0.01 86 1012.0
20260507002200 66 350 0.0 2.0 0.00 0.00 0.01 86 1012.2
20260507001700 66 333 5.0 8.0 0.00 0.00 0.01 86 1012.1
20260507001200 66 51 4.0 6.0 0.00 0.00 0.01 86 1012.0
20260507000700 66 14 3.0 4.0 0.00 0.00 0.01 86 1011.8
20260507000204 66 359 2.0 4.0 0.00 0.00 0.01 86 1011.9
20260506235701 67 334 2.0 3.0 0.00 0.00 0.01 86 1011.9
20260506235200 67 3 2.0 4.0 0.00 0.00 0.01 86 1011.8
20260506234703 67 359 4.0 6.0 0.00 0.00 0.01 86 1011.8
20260506234200 67 17 6.0 11.0 0.00 0.00 0.01 86 1011.6
20260506233707 67 320 3.0 7.0 0.00 0.00 0.01 86 1011.4
20260506233200 68 327 5.0 8.0 0.00 0.00 0.01 86 1011.2
20260506232700 68 353 3.0 6.0 0.01 0.00 0.01 86 1011.2
20260506232200 68 18 2.0 3.0 0.01 0.00 0.01 86 1011.3
20260506231700 69 31 5.0 7.0 0.01 0.00 0.01 86 1011.0
20260506231201 69 346 4.0 8.0 0.01 0.00 0.01 86 1010.8
20260506230701 69 303 3.0 5.0 0.01 0.00 0.01 86 1010.8
20260506230201 69 32 6.0 8.0 0.01 0.00 0.01 86 1010.8
20260506225700 69 63 2.0 4.0 0.01 0.00 0.01 87 1010.8
20260506225200 69 23 2.0 4.0 0.01 0.00 0.01 87 1011.0
20260506224702 69 10 5.0 9.0 0.01 0.00 0.01 87 1011.1
20260506224200 69 37 4.0 7.0 0.01 0.00 0.01 87 1011.0
20260506223703 69 313 2.0 3.0 0.00 0.00 0.01 87 1011.0
20260506223200 69 86 3.0 5.0 0.00 0.00 0.00 87 1011.0
20260506222701 70 108 1.0 2.0 0.00 0.00 0.00 86 1010.8
20260506222200 70 318 3.0 7.0 0.00 0.00 0.00 86 1010.7
20260506221701 71 358 4.0 12.0 0.00 0.00 0.00 86 1010.5
20260506221201 72 351 5.0 8.0 0.00 0.00 0.00 86 1010.5
20260506220701 73 351 3.0 6.0 0.00 0.00 0.00 86 1010.4
20260506220200 74 353 5.0 10.0 0.00 0.00 0.00 86 1010.2
20260506215702 75 47 7.0 10.0 0.00 0.00 0.00 86 1010.0
20260506215202 76 342 4.0 5.0 0.00 0.00 0.00 85 1010.2
20260506214700 76 20 4.0 8.0 0.00 0.00 0.00 85 1010.0
20260506214200 77 39 7.0 9.0 0.00 0.00 0.00 84 1009.9
20260506213700 78 40 6.0 9.0 0.00 0.00 0.00 84 1010.0
20260506213200 79 31 2.0 4.0 0.00 0.00 0.00 83 1010.0
20260506212700 79 73 3.0 5.0 0.00 0.00 0.00 83 1010.1
20260506212200 79 22 3.0 4.0 0.00 0.00 0.00 81 1010.2
20260506211701 80 346 2.0 3.0 0.00 0.00 0.00 81 1010.2
20260506211200 80 43 0.0 2.0 0.00 0.00 0.00 81 1010.2
20260506210700 79 86 3.0 4.0 0.00 0.00 0.00 81 1010.2
20260506210200 79 67 3.0 6.0 0.00 0.00 0.00 81 1010.1
20260506205702 80 84 4.0 5.0 0.00 0.00 0.00 81 1010.2
20260506205200 80 29 5.0 9.0 0.00 0.00 0.00 81 1010.2
20260506204701 80 84 4.0 5.0 0.00 0.00 0.00 80 1010.2
20260506204200 80 109 2.0 4.0 0.00 0.00 0.00 79 1010.2
20260506203700 80 2 1.0 3.0 0.00 0.00 0.00 80 1010.2
20260506203200 80 92 3.0 4.0 0.00 0.00 0.00 80 1010.2
20260506202700 81 99 4.0 6.0 0.00 0.00 0.00 78 1010.2
20260506202200 81 125 2.0 3.0 0.00 0.00 0.00 79 1010.2
20260506201700 81 284 2.0 4.0 0.00 0.00 0.00 78 1010.1
20260506201201 80 295 3.0 6.0 0.00 0.00 0.00 80 1010.2
20260506200701 80 259 4.0 5.0 0.00 0.00 0.00 80 1010.1
20260506200200 80 252 1.0 2.0 0.00 0.00 0.00 81 1010.1
20260506195700 79 337 3.0 5.0 0.00 0.00 0.00 81 1010.1
20260506195200 79 290 4.0 5.0 0.00 0.00 0.00 81 1010.1
20260506194701 79 0 3.0 6.0 0.00 0.00 0.00 81 1010.2
20260506194201 78 300 2.0 4.0 0.00 0.00 0.00 82 1010.2
20260506193701 78 335 4.0 6.0 0.00 0.00 0.00 82 1010.2
20260506193200 77 0 3.0 5.0 0.00 0.00 0.00 83 1010.2
20260506192700 77 7 2.0 5.0 0.00 0.00 0.00 83 1010.3
20260506192201 77 354 3.0 4.0 0.00 0.00 0.00 84 1010.3
20260506191700 77 44 2.0 4.0 0.00 0.00 0.00 84 1010.5
20260506191200 77 20 4.0 7.0 0.00 0.00 0.00 84 1010.5
20260506190700 78 341 4.0 7.0 0.00 0.00 0.00 83 1010.6
20260506190200 78 17 2.0 4.0 0.00 0.00 0.00 82 1010.7
20260506185702 79 12 3.0 6.0 0.00 0.00 0.00 81 1010.7
20260506185200 80 292 2.0 5.0 0.00 0.00 0.00 79 1011.0
20260506184700 80 215 2.0 4.0 0.00 0.00 0.00 80 1011.1
20260506184201 80 127 2.0 2.0 0.00 0.00 0.00 81 1011.3
20260506183701 80 177 4.0 5.0 0.00 0.00 0.00 80 1011.5
20260506183201 80 240 1.0 2.0 0.00 0.00 0.00 80 1011.6
20260506182701 80 236 3.0 5.0 0.00 0.00 0.00 81 1011.7
20260506182200 80 173 2.0 6.0 0.00 0.00 0.00 82 1011.8
20260506181701 80 199 3.0 5.0 0.00 0.00 0.00 82 1011.9
20260506181201 79 234 2.0 3.0 0.00 0.00 0.00 81 1012.1
20260506180702 79 207 3.0 4.0 0.00 0.00 0.00 82 1012.1
20260506180201 79 223 4.0 6.0 0.00 0.00 0.00 82 1012.1
20260506175700 79 222 4.0 4.0 0.00 0.00 0.00 82 1012.2
20260506175200 79 200 3.0 4.0 0.00 0.00 0.00 83 1012.4
20260506174701 79 230 2.0 4.0 0.00 0.00 0.00 84 1012.4
20260506174201 79 190 2.0 3.0 0.00 0.00 0.00 84 1012.5
20260506173700 79 168 1.0 2.0 0.00 0.00 0.00 84 1012.5
20260506173202 79 216 0.0 1.0 0.00 0.00 0.00 85 1012.8
20260506172701 78 228 0.0 1.0 0.00 0.00 0.00 84 1012.9
20260506172200 78 174 1.0 2.0 0.00 0.00 0.00 84 1013.0
20260506171700 78 218 2.0 3.0 0.00 0.00 0.00 84 1013.0
20260506171201 78 227 4.0 4.0 0.00 0.00 0.00 84 1013.0
20260506170701 78 195 1.0 2.0 0.00 0.00 0.00 85 1013.0
20260506170200 78 178 2.0 4.0 0.00 0.00 0.00 84 1012.8
20260506165700 78 237 2.0 3.0 0.00 0.00 0.00 84 1012.9
20260506165202 78 208 0.0 1.0 0.00 0.00 0.00 84 1012.8
20260506164701 78 243 2.0 3.0 0.00 0.00 0.00 84 1012.9
20260506164201 78 177 5.0 7.0 0.00 0.00 0.00 84 1012.6
20260506163701 78 207 2.0 3.0 0.00 0.00 0.00 84 1012.6
20260506163203 78 168 2.0 4.0 0.00 0.00 0.00 85 1012.5
20260506162700 78 174 4.0 6.0 0.00 0.00 0.00 84 1012.4
20260506162201 78 169 3.0 4.0 0.00 0.00 0.00 85 1012.4
20260506161701 78 231 2.0 3.0 0.00 0.00 0.00 84 1012.4
20260506161200 78 174 3.0 4.0 0.00 0.00 0.00 84 1012.4
20260506160702 78 240 1.0 3.0 0.00 0.00 0.00 84 1012.4
20260506160204 78 165 2.0 3.0 0.00 0.00 0.00 84 1012.4
20260506155702 78 196 1.0 1.0 0.00 0.00 0.00 85 1012.4
20260506155200 78 178 4.0 4.0 0.00 0.00 0.00 85 1012.4
20260506154702 78 190 2.0 4.0 0.00 0.00 0.00 85 1012.2
20260506154201 78 211 1.0 2.0 0.00 0.00 0.00 85 1012.3
20260506153700 78 183 1.0 3.0 0.00 0.00 0.00 85 1012.3
20260506153201 78 224 3.0 5.0 0.00 0.00 0.00 84 1012.2
20260506152700 78 186 3.0 4.0 0.00 0.00 0.00 84 1012.1
20260506152200 78 210 1.0 4.0 0.00 0.00 0.00 85 1012.0
20260506151702 78 170 5.0 6.0 0.00 0.00 0.00 85 1012.0
20260506151200 78 227 2.0 3.0 0.00 0.00 0.00 85 1012.0
20260506150703 78 222 3.0 4.0 0.00 0.00 0.00 84 1012.0
20260506150203 78 178 2.0 4.0 0.00 0.00 0.00 85 1011.9
20260506145701 78 171 3.0 5.0 0.00 0.00 0.00 85 1011.9
20260506145200 77 179 3.0 4.0 0.00 0.00 0.00 85 1011.8
20260506144701 77 161 0.0 2.0 0.00 0.00 0.00 86 1011.8
20260506144201 77 167 6.0 8.0 0.00 0.00 0.00 85 1011.7
20260506143701 77 162 3.0 4.0 0.00 0.00 0.00 86 1011.7
20260506143200 77 193 1.0 2.0 0.00 0.00 0.00 87 1011.7
20260506142701 77 225 2.0 2.0 0.00 0.00 0.00 87 1011.7
20260506142204 77 199 3.0 5.0 0.00 0.00 0.00 87 1011.7
20260506141700 76 224 4.0 7.0 0.00 0.00 0.00 87 1011.7
20260506141203 76 178 5.0 6.0 0.00 0.00 0.00 87 1011.6
20260506140700 76 213 2.0 2.0 0.00 0.00 0.00 87 1011.5
20260506140201 76 170 4.0 5.0 0.00 0.00 0.00 87 1011.5
20260506135702 76 154 4.0 4.0 0.00 0.00 0.00 87 1011.5
20260506135201 76 173 2.0 3.0 0.00 0.00 0.00 88 1011.5
20260506134700 76 207 3.0 4.0 0.00 0.00 0.00 88 1011.6
20260506134202 76 251 1.0 2.0 0.00 0.00 0.00 88 1011.5
20260506133700 76 204 2.0 3.0 0.00 0.00 0.00 88 1011.6
20260506133200 76 176 0.0 0.0 0.00 0.00 0.00 88 1011.6
20260506132701 76 175 3.0 4.0 0.00 0.00 0.00 89 1011.5
20260506132203 75 175 2.0 4.0 0.00 0.00 0.00 89 1011.4
20260506131704 75 168 3.0 3.0 0.00 0.00 0.00 89 1011.5
20260506131200 75 179 0.0 2.0 0.00 0.00 0.00 89 1011.5
20260506130700 75 171 1.0 1.0 0.00 0.00 0.00 90 1011.4
20260506130201 75 153 4.0 4.0 0.00 0.00 0.00 89 1011.3
20260506125701 75 211 2.0 3.0 0.00 0.00 0.00 90 1011.4
20260506125201 75 152 2.0 2.0 0.00 0.00 0.00 90 1011.3
20260506124700 74 189 3.0 3.0 0.00 0.00 0.00 90 1011.2
20260506124201 74 170 2.0 2.0 0.00 0.00 0.00 90 1011.2
20260506123700 74 164 2.0 2.0 0.00 0.00 0.00 90 1011.2
20260506123200 74 174 2.0 3.0 0.00 0.00 0.00 90 1011.1
20260506122702 74 179 2.0 2.0 0.00 0.00 0.00 90 1011.0
20260506122200 74 176 2.0 3.0 0.00 0.00 0.00 91 1011.0
20260506121700 74 189 2.0 3.0 0.00 0.00 0.00 91 1010.9
20260506121202 74 151 3.0 4.0 0.00 0.00 0.00 91 1010.8
20260506120701 74 154 1.0 2.0 0.00 0.00 0.00 91 1010.7
20260506120202 74 157 3.0 4.0 0.00 0.00 0.00 91 1010.7
20260506115700 74 131 2.0 3.0 0.00 0.00 0.00 91 1010.6
20260506115203 74 164 2.0 3.0 0.00 0.00 0.00 91 1010.4
20260506114700 74 154 3.0 4.0 0.00 0.00 0.00 90 1010.4
20260506114201 74 141 1.0 2.0 0.00 0.00 0.00 90 1010.3
20260506113701 74 169 2.0 2.0 0.00 0.00 0.00 90 1010.3
20260506113204 74 139 2.0 4.0 0.00 0.00 0.00 90 1010.3
20260506112700 74 182 3.0 3.0 0.00 0.00 0.00 90 1010.2
20260506112201 74 124 2.0 2.0 0.00 0.00 0.00 90 1010.1
20260506111700 74 160 2.0 3.0 0.00 0.00 0.00 89 1010.1
20260506111200 74 167 3.0 5.0 0.00 0.00 0.00 89 1010.0
20260506110700 74 197 1.0 2.0 0.00 0.00 0.00 89 1010.1
20260506110200 74 186 2.0 4.0 0.00 0.00 0.00 89 1010.0
20260506105700 74 163 2.0 2.0 0.00 0.00 0.00 89 1010.1
20260506105200 74 200 3.0 4.0 0.00 0.00 0.00 89 1009.9
20260506104700 74 183 2.0 3.0 0.00 0.00 0.00 89 1009.9
20260506104201 74 207 3.0 4.0 0.00 0.00 0.00 89 1009.9
20260506103700 74 186 3.0 4.0 0.00 0.00 0.00 89 1009.9
20260506103201 74 195 2.0 3.0 0.00 0.00 0.00 89 1009.9
20260506102701 74 189 1.0 2.0 0.00 0.00 0.00 89 1009.9
20260506102200 75 173 2.0 4.0 0.00 0.00 0.00 89 1009.9
20260506101702 75 186 2.0 3.0 0.00 0.00 0.00 89 1009.8
20260506101201 75 163 3.0 5.0 0.00 0.00 0.00 89 1009.7
20260506100700 75 176 3.0 6.0 0.00 0.00 0.00 88 1009.7
20260506100201 75 174 2.0 4.0 0.00 0.00 0.00 88 1009.7
20260506095701 75 187 1.0 2.0 0.00 0.00 0.00 88 1009.7
20260506095201 75 175 4.0 7.0 0.00 0.00 0.00 88 1009.5
20260506094700 75 200 3.0 6.0 0.00 0.00 0.00 88 1009.7
20260506094200 75 188 3.0 6.0 0.00 0.00 0.00 88 1009.7
20260506093700 75 201 2.0 3.0 0.00 0.00 0.00 88 1009.7
20260506093200 75 175 2.0 4.0 0.00 0.00 0.00 88 1009.7
20260506092701 75 182 4.0 5.0 0.00 0.00 0.00 88 1009.7
20260506092201 75 168 3.0 5.0 0.00 0.00 0.00 89 1009.7
20260506091702 75 201 3.0 4.0 0.00 0.00 0.00 89 1009.6
20260506091203 75 241 1.0 2.0 0.00 0.00 0.00 89 1009.6
20260506090700 75 179 3.0 5.0 0.00 0.00 0.00 89 1009.6
20260506090200 75 154 1.0 4.0 0.00 0.00 0.00 89 1009.5
20260506085700 75 224 5.0 7.0 0.00 0.00 0.00 89 1009.5
20260506085200 75 194 2.0 3.0 0.00 0.00 0.00 89 1009.5
20260506084700 75 147 1.0 2.0 0.00 0.00 0.00 88 1009.5
20260506084200 75 168 3.0 4.0 0.00 0.00 0.00 88 1009.6
20260506083700 75 168 4.0 5.0 0.00 0.00 0.00 88 1009.5
20260506083202 75 172 4.0 5.0 0.00 0.00 0.00 88 1009.4
20260506082701 75 167 4.0 5.0 0.00 0.00 0.00 88 1009.5
20260506082202 75 278 0.0 2.0 0.00 0.00 0.00 88 1009.5
20260506081700 75 164 3.0 6.0 0.00 0.00 0.00 88 1009.5
20260506081200 75 172 4.0 6.0 0.00 0.00 0.00 88 1009.5
20260506080703 75 180 2.0 3.0 0.00 0.00 0.00 88 1009.6
20260506080200 75 167 2.0 4.0 0.00 0.00 0.00 88 1009.6
20260506073201 75 175 3.0 8.0 0.00 0.00 0.00 87 1009.6
20260506072700 75 161 8.0 9.0 0.00 0.00 0.00 87 1009.7
20260506072200 75 170 5.0 7.0 0.00 0.00 0.00 87 1009.8
20260506071701 76 166 2.0 3.0 0.00 0.00 0.00 87 1009.9
20260506071200 76 181 2.0 6.0 0.00 0.00 0.00 87 1010.0
20260506070700 76 169 4.0 5.0 0.00 0.00 0.00 87 1010.2
20260506070201 76 192 3.0 5.0 0.00 0.00 0.00 86 1010.3
20260506062201 76 177 4.0 9.0 0.00 0.00 0.00 86 1010.1
20260506061700 76 212 3.0 7.0 0.00 0.00 0.00 86 1010.0
20260506061200 76 220 3.0 4.0 0.00 0.00 0.00 86 1010.1
20260506060700 76 219 4.0 6.0 0.00 0.00 0.00 86 1010.2
20260506060200 76 216 7.0 9.0 0.00 0.00 0.00 86 1010.2
20260506051200 76 195 3.0 5.0 0.00 0.00 0.00 86 1009.5
20260506050700 76 168 6.0 10.0 0.00 0.00 0.00 86 1009.3
20260506050202 76 194 2.0 3.0 0.00 0.00 0.00 86 1009.3
20260506044701 76 166 5.0 8.0 0.00 0.00 0.00 86 1009.6
20260506044200 76 175 9.0 11.0 0.00 0.00 0.00 86 1009.6
20260506043700 76 155 3.0 6.0 0.00 0.00 0.00 86 1009.6
20260506043200 76 166 5.0 6.0 0.00 0.00 0.00 86 1009.7
20260506042700 76 185 5.0 8.0 0.00 0.00 0.00 86 1009.8
20260506042200 76 187 2.0 3.0 0.00 0.00 0.00 85 1009.9
20260506041700 77 196 2.0 3.0 0.00 0.00 0.00 85 1009.8
20260506041200 77 158 4.0 7.0 0.00 0.00 0.00 85 1009.7
20260506040702 77 162 4.0 7.0 0.00 0.00 0.00 85 1009.7
20260506040201 77 178 4.0 6.0 0.00 0.00 0.00 85 1009.7
20260506035701 77 228 5.0 9.0 0.00 0.00 0.00 85 1009.6
20260506035202 77 195 4.0 8.0 0.00 0.00 0.00 85 1009.7
20260506034700 77 211 5.0 6.0 0.00 0.00 0.00 85 1009.7
20260506034200 77 207 3.0 7.0 0.00 0.00 0.00 85 1009.8
20260506033700 77 210 2.0 3.0 0.00 0.00 0.00 85 1009.7
20260506033200 77 209 6.0 7.0 0.00 0.00 0.00 85 1009.6
20260506032700 77 192 2.0 4.0 0.00 0.00 0.00 85 1009.5
20260506032201 77 186 4.0 6.0 0.00 0.00 0.00 84 1009.4
20260506031701 77 225 5.0 8.0 0.00 0.00 0.00 84 1009.2
20260506031200 77 170 4.0 6.0 0.00 0.00 0.00 85 1009.2
20260506030701 77 198 4.0 5.0 0.00 0.00 0.00 84 1009.2
20260506030200 77 222 4.0 8.0 0.00 0.00 0.00 84 1009.1
20260506025700 77 217 5.0 8.0 0.00 0.00 0.00 85 1009.1
20260506025200 77 171 6.0 10.0 0.00 0.00 0.00 85 1008.9
20260506024701 77 184 5.0 8.0 0.00 0.00 0.00 85 1009.1
20260506024200 77 169 4.0 8.0 0.00 0.00 0.00 85 1008.9
20260506023701 77 165 4.0 6.0 0.00 0.00 0.00 85 1008.8
20260506023200 77 189 4.0 4.0 0.00 0.00 0.00 85 1008.7
20260506022700 77 172 5.0 8.0 0.00 0.00 0.00 85 1008.6
20260506022200 77 183 3.0 6.0 0.00 0.00 0.00 85 1008.6
20260506021701 77 175 3.0 6.0 0.00 0.00 0.00 85 1008.4
20260506021200 77 173 6.0 11.0 0.00 0.00 0.00 85 1008.4